Weather History for Corning, AR

Change the Weather History Date:

Saturday, August 24, 2013

  Actual Average (KARG) Record (KARG)
Temperature  
Mean Temperature 79 °F -  
Max Temperature 89 °F 86 °F 96 °F (2001)
Min Temperature 69 °F 67 °F 59 °F (1997)
Cooling Degree Days 14    
Growing Degree Days 29 (Base 50)    
Moisture  
Dew Point 72 °F    
Average Humidity 80    
Maximum Humidity 100    
Minimum Humidity 55    
Precipitation  
Precipitation 0.08 in - - ()
Sea Level Pressure  
Sea Level Pressure 30.14 in    
Wind  
Wind Speed 7 mph (NE)    
Max Wind Speed 12 mph    
Max Gust Speed 18 mph    
Visibility 7 miles    
Events Rain    
Averages and records for this station are not official NWS values.
T = Trace of Precipitation, MM = Missing Value Source: NWS Daily Summary

Daily Weather History Graph

Daily Weather History Graph

Search for Another Location

Airport:

Trip Planner

Search our weather history database for the weather conditions in past years. The results will help you decide how hot, cold, wet, or windy it might be!

Date:

Astronomy

Aug. 24, 2013 Rise Set
Actual Time 6:27 AM CDT 7:41 PM CDT
Civil Twilight 6:01 AM CDT 8:07 PM CDT
Nautical Twilight 5:29 AM CDT 8:39 PM CDT
Astronomical Twilight 4:55 AM CDT 9:12 PM CDT
Moon 9:44 PM CDT (8/24) 10:19 AM CDT (8/24)
Length of Visible Light 14h 06m
Length of Day
13h 13m
Waning Gibbous, 84% of the Moon is Illuminated
Aug 24
Waning Gibbous
Aug 28
Last Quarter
Sep 5
New
Sep 12
First Quarter
Sep 19
Full

Hourly Weather History & Observations

Time (CDT) Temp. Heat Index Dew Point Humidity Pressure Visibility Wind Dir Wind Speed Gust Speed Precip Events Conditions
12:15 AM 73.4 °F - 71.6 °F 94% 30.08 in 7.0 mi ENE 4.6 mph - N/A   Clear
12:35 AM 73.4 °F - 69.8 °F 88% 30.09 in 8.0 mi NE 4.6 mph - N/A   Clear
12:55 AM 73.4 °F - 69.8 °F 88% 30.09 in 8.0 mi NE 5.8 mph - N/A   Clear
1:15 AM 73.4 °F - 69.8 °F 88% 30.09 in 8.0 mi NNE 5.8 mph - N/A   Clear
1:35 AM 71.6 °F - 69.8 °F 94% 30.09 in 7.0 mi NNE 5.8 mph - N/A   Clear
1:55 AM 73.4 °F - 71.6 °F 94% 30.09 in 7.0 mi NNE 4.6 mph - N/A   Clear
2:15 AM 71.6 °F - 71.6 °F 100% 30.09 in 6.0 mi NNE 4.6 mph - N/A   Clear
2:35 AM 73.4 °F - 71.6 °F 94% 30.09 in 7.0 mi NNE 5.8 mph - N/A   Clear
2:55 AM 73.4 °F - 71.6 °F 94% 30.10 in 5.0 mi NNE 4.6 mph - N/A   Clear
3:15 AM 71.6 °F - 71.6 °F 100% 30.10 in 5.0 mi NNE 5.8 mph - N/A   Clear
3:35 AM 71.6 °F - 71.6 °F 100% 30.10 in 5.0 mi NNE 5.8 mph - N/A   Clear
3:55 AM 69.8 °F - 69.8 °F 100% 30.10 in 4.0 mi NE 4.6 mph - N/A   Clear
4:15 AM 71.6 °F - 71.6 °F 100% 30.10 in 4.0 mi NE 3.5 mph - N/A   Clear
4:35 AM 71.6 °F - 71.6 °F 100% 30.11 in 4.0 mi NNE 5.8 mph - N/A   Clear
4:55 AM 69.8 °F - 69.8 °F 100% 30.11 in 3.0 mi NNE 6.9 mph - N/A   Clear
5:15 AM 71.6 °F - 71.6 °F 100% 30.12 in 3.0 mi NNE 5.8 mph - N/A   Clear
5:35 AM 71.6 °F - 71.6 °F 100% 30.12 in 3.0 mi NNE 5.8 mph - N/A   Clear
5:55 AM 69.8 °F - 69.8 °F 100% 30.13 in 3.0 mi NNE 6.9 mph - N/A   Clear
6:15 AM 69.8 °F - 69.8 °F 100% 30.13 in 1.8 mi NNE 5.8 mph - N/A   Clear
6:35 AM 71.6 °F - 71.6 °F 100% 30.14 in 1.5 mi NNE 6.9 mph - N/A   Clear
6:55 AM 71.6 °F - 71.6 °F 100% 30.14 in 1.5 mi NNE 4.6 mph - N/A   Clear
7:15 AM 71.6 °F - 71.6 °F 100% 30.16 in 1.8 mi NNE 5.8 mph - N/A   Clear
7:35 AM 73.4 °F - 73.4 °F 100% 30.16 in 2.0 mi NNE 6.9 mph - N/A   Clear
7:55 AM 73.4 °F - 73.4 °F 100% 30.17 in 2.5 mi NE 5.8 mph - N/A   Clear
8:15 AM 75.2 °F - 73.4 °F 94% 30.17 in 3.0 mi NE 8.1 mph - N/A   Clear
8:35 AM 77.0 °F - 73.4 °F 89% 30.17 in 5.0 mi NE 8.1 mph - N/A   Clear
8:55 AM 77.0 °F - 73.4 °F 89% 30.17 in 7.0 mi NE 8.1 mph - N/A   Clear
9:15 AM 80.6 °F 85.4 °F 73.4 °F 79% 30.18 in 7.0 mi NE 8.1 mph - N/A   Clear
9:35 AM 80.6 °F 85.4 °F 73.4 °F 79% 30.18 in 8.0 mi NE 6.9 mph - N/A   Clear
9:55 AM 82.4 °F 88.2 °F 73.4 °F 74% 30.19 in 9.0 mi ENE 6.9 mph - N/A   Clear
10:15 AM 82.4 °F 88.2 °F 73.4 °F 74% 30.18 in 9.0 mi ENE 6.9 mph - N/A   Clear
10:35 AM 84.2 °F 90.9 °F 73.4 °F 70% 30.18 in 10.0 mi East 9.2 mph - N/A   Clear
10:55 AM 84.2 °F 90.9 °F 73.4 °F 70% 30.18 in 9.0 mi ENE 6.9 mph - N/A Rain Light Rain
11:15 AM 84.2 °F 90.9 °F 73.4 °F 70% 30.17 in 9.0 mi NNE 10.4 mph - N/A Rain Light Rain
11:35 AM 86.0 °F 93.4 °F 73.4 °F 66% 30.17 in 9.0 mi NE 10.4 mph - N/A Rain Light Rain
11:55 AM 86.0 °F 93.4 °F 73.4 °F 66% 30.17 in 9.0 mi NE 9.2 mph - 0.01 in Rain Light Rain
12:15 PM 86.0 °F 93.4 °F 73.4 °F 66% 30.16 in 9.0 mi NNE 10.4 mph - N/A Rain Light Rain
12:35 PM 87.8 °F 95.6 °F 73.4 °F 62% 30.16 in 9.0 mi NE 9.2 mph - N/A Rain Light Rain
12:55 PM 86.0 °F 93.4 °F 73.4 °F 66% 30.15 in 8.0 mi North 8.1 mph - 0.01 in Rain Light Rain
1:15 PM 86.0 °F 93.4 °F 73.4 °F 66% 30.15 in 10.0 mi East 8.1 mph - N/A Rain Light Rain
1:35 PM 87.8 °F 93.8 °F 71.6 °F 58% 30.15 in 9.0 mi East 10.4 mph - N/A Rain Light Rain
1:55 PM 87.8 °F 93.8 °F 71.6 °F 58% 30.15 in 8.0 mi ENE 10.4 mph - 0.01 in Rain Light Rain
2:15 PM 87.8 °F 93.8 °F 71.6 °F 58% 30.15 in 10.0 mi NE 11.5 mph - N/A Rain Light Rain
2:35 PM 89.6 °F 96.2 °F 71.6 °F 55% 30.14 in 9.0 mi ENE 8.1 mph 16.1 mph N/A Rain Light Rain
2:55 PM 89.6 °F 96.2 °F 71.6 °F 55% 30.14 in 9.0 mi ENE 8.1 mph 18.4 mph 0.01 in Rain Light Rain
3:15 PM 87.8 °F 93.8 °F 71.6 °F 58% 30.13 in 9.0 mi ENE 10.4 mph - N/A Rain Light Rain
3:35 PM 89.6 °F 96.2 °F 71.6 °F 55% 30.13 in 9.0 mi East 10.4 mph 16.1 mph N/A Rain Light Rain
3:55 PM 89.6 °F 96.2 °F 71.6 °F 55% 30.13 in 10.0 mi NE 10.4 mph - 0.01 in Rain Light Rain
4:15 PM 89.6 °F 96.2 °F 71.6 °F 55% 30.13 in 10.0 mi East 11.5 mph - N/A Rain Light Rain
4:35 PM 87.8 °F 93.8 °F 71.6 °F 58% 30.12 in 10.0 mi ENE 9.2 mph - N/A Rain Light Rain
4:55 PM 87.8 °F 93.8 °F 71.6 °F 58% 30.12 in 9.0 mi East 10.4 mph - 0.01 in Rain Light Rain
5:15 PM 87.8 °F 93.8 °F 71.6 °F 58% 30.12 in 8.0 mi East 11.5 mph - N/A Rain Light Rain
5:35 PM 87.8 °F 93.8 °F 71.6 °F 58% 30.12 in 9.0 mi East 9.2 mph - N/A Rain Light Rain
5:55 PM 86.0 °F 91.8 °F 71.6 °F 62% 30.12 in 8.0 mi ENE 6.9 mph - 0.01 in Rain Light Rain
6:15 PM 86.0 °F 93.4 °F 73.4 °F 66% 30.12 in 9.0 mi East 6.9 mph - N/A Rain Light Rain
6:35 PM 84.2 °F 89.6 °F 71.6 °F 66% 30.12 in 9.0 mi East 6.9 mph - N/A Rain Light Rain
6:55 PM 82.4 °F 88.2 °F 73.4 °F 74% 30.13 in 9.0 mi East 4.6 mph - 0.01 in Rain Light Rain
7:15 PM 80.6 °F 85.4 °F 73.4 °F 79% 30.13 in 9.0 mi East 5.8 mph - N/A Rain Light Rain
7:35 PM 80.6 °F 84.6 °F 71.6 °F 74% 30.13 in 9.0 mi East 5.8 mph - N/A Rain Light Rain
7:55 PM 78.8 °F - 71.6 °F 78% 30.14 in 9.0 mi ENE 5.8 mph - N/A   Clear
8:15 PM 78.8 °F - 73.4 °F 83% 30.14 in 7.0 mi ENE 5.8 mph - N/A   Clear
8:35 PM 77.0 °F - 71.6 °F 83% 30.15 in 8.0 mi East 5.8 mph - N/A   Clear
8:55 PM 77.0 °F - 71.6 °F 83% 30.16 in 9.0 mi East 5.8 mph - N/A   Clear
9:15 PM 77.0 °F - 71.6 °F 83% 30.16 in 10.0 mi East 6.9 mph - N/A   Clear
9:35 PM 77.0 °F - 71.6 °F 83% 30.17 in 10.0 mi East 9.2 mph - N/A   Clear
9:55 PM 77.0 °F - 69.8 °F 78% 30.17 in 10.0 mi East 8.1 mph - N/A   Clear
10:15 PM 75.2 °F - 69.8 °F 83% 30.17 in 10.0 mi ENE 8.1 mph - N/A   Clear
10:35 PM 75.2 °F - 69.8 °F 83% 30.18 in 10.0 mi ENE 8.1 mph - N/A   Clear
10:55 PM 75.2 °F - 71.6 °F 89% 30.18 in 10.0 mi NE 5.8 mph - N/A   Clear
11:15 PM 75.2 °F - 71.6 °F 89% 30.18 in 9.0 mi NE 4.6 mph - N/A   Clear
11:35 PM 73.4 °F - 71.6 °F 94% 30.17 in 10.0 mi NE 4.6 mph - N/A   Clear
11:55 PM 73.4 °F - 71.6 °F 94% 30.17 in 9.0 mi NE 4.6 mph - N/A   Clear